Year,Month,Day,Hour,Minute,Value (Times are PST for barometer in hPa)
2021,02,08,05,04,900.20
2021,02,08,05,05,900.48
2021,02,08,05,06,900.51
2021,02,08,05,07,901.54
2021,02,08,05,08,901.10
2021,02,08,05,09,900.96
2021,02,08,05,10,901.27
2021,02,08,05,11,901.29
2021,02,08,05,12,900.48
2021,02,08,05,13,900.83
2021,02,08,05,14,900.85
2021,02,08,05,15,903.07
2021,02,08,05,16,903.18
2021,02,08,05,17,903.60
2021,02,08,05,18,903.62
2021,02,08,05,19,902.69
2021,02,08,05,20,902.95
2021,02,08,05,21,902.95
2021,02,08,05,22,902.95
2021,02,08,05,23,903.93
2021,02,08,05,24,903.86
2021,02,08,05,25,903.83
2021,02,08,05,26,904.28
2021,02,08,05,27,903.92
2021,02,08,05,28,903.90
2021,02,08,05,29,903.39
2021,02,08,05,30,903.39
2021,02,08,05,31,905.79
2021,02,08,05,32,905.35
2021,02,08,05,33,905.59
2021,02,08,05,34,905.62
2021,02,08,05,35,905.62
2021,02,08,05,36,905.69
2021,02,08,05,37,905.69
2021,02,08,05,38,906.13
2021,02,08,05,39,905.93
2021,02,08,05,40,905.93
2021,02,08,05,41,904.54
2021,02,08,05,42,904.54
2021,02,08,05,43,904.17
2021,02,08,05,44,904.46
2021,02,08,05,45,904.84
2021,02,08,05,46,904.94
2021,02,08,05,47,904.91
2021,02,08,05,48,905.00
2021,02,08,05,49,904.88
2021,02,08,05,50,904.81
2021,02,08,05,51,903.35
2021,02,08,05,52,903.90
2021,02,08,05,53,903.98
2021,02,08,05,54,905.69
2021,02,08,05,55,905.69
2021,02,08,05,56,905.62
2021,02,08,05,57,904.24
2021,02,08,05,58,904.54
2021,02,08,05,59,904.55
2021,02,08,06,00,904.85
2021,02,08,06,01,905.12
2021,02,08,06,02,904.50
2021,02,08,06,03,904.53
2021,02,08,06,04,904.99
2021,02,08,06,05,904.36
2021,02,08,06,06,904.23
2021,02,08,06,07,904.20
2021,02,08,06,08,903.94
2021,02,08,06,09,904.09
2021,02,08,06,10,903.70
2021,02,08,06,11,903.38
2021,02,08,06,12,903.20
2021,02,08,06,13,903.36
2021,02,08,06,14,903.38
2021,02,08,06,15,903.03
2021,02,08,06,16,903.32
2021,02,08,06,17,903.32
2021,02,08,06,18,903.32
2021,02,08,06,19,903.32
2021,02,08,06,20,903.20
2021,02,08,06,21,902.36
2021,02,08,06,22,902.01
2021,02,08,06,23,902.51
2021,02,08,06,24,902.76
2021,02,08,06,25,904.16
2021,02,08,06,26,903.76
2021,02,08,06,27,903.54
2021,02,08,06,28,901.59
2021,02,08,06,29,901.56
2021,02,08,06,30,901.56
2021,02,08,06,31,901.56
2021,02,08,06,32,901.56
2021,02,08,06,33,901.56
2021,02,08,06,34,901.67
2021,02,08,06,35,902.37
2021,02,08,06,36,902.65
2021,02,08,06,37,904.30
2021,02,08,06,38,904.16
2021,02,08,06,39,903.60
2021,02,08,06,40,903.90
2021,02,08,06,41,904.13
2021,02,08,06,42,904.13
2021,02,08,06,43,903.97
2021,02,08,06,44,902.86
2021,02,08,06,45,902.33
2021,02,08,06,46,902.27
2021,02,08,06,47,902.13
2021,02,08,06,48,901.56
2021,02,08,06,49,901.86
2021,02,08,06,50,902.02
2021,02,08,06,51,903.03
2021,02,08,06,52,903.40
2021,02,08,06,53,903.50
2021,02,08,06,54,903.52
2021,02,08,06,55,903.38
2021,02,08,06,56,903.49
2021,02,08,06,57,903.49
2021,02,08,06,58,903.27
2021,02,08,06,59,902.37
2021,02,08,07,00,902.65
2021,02,08,07,01,903.54
2021,02,08,07,02,903.22
2021,02,08,07,03,903.22
2021,02,08,07,04,902.89
2021,02,08,07,05,901.83
2021,02,08,07,06,902.34
2021,02,08,07,07,904.64
2021,02,08,07,08,904.64
2021,02,08,07,09,904.39
2021,02,08,07,10,903.52
2021,02,08,07,11,903.31
2021,02,08,07,12,902.56
2021,02,08,07,13,902.66
2021,02,08,07,14,902.78
2021,02,08,07,15,902.78
2021,02,08,07,16,902.78
2021,02,08,07,17,902.78
2021,02,08,07,18,902.43
2021,02,08,07,19,901.19
2021,02,08,07,20,901.19
2021,02,08,07,21,901.19
2021,02,08,07,26,900.64
2021,02,08,07,27,900.60
2021,02,08,07,28,900.47
2021,02,08,07,29,900.47
2021,02,08,07,30,901.38
2021,02,08,07,31,903.56
2021,02,08,07,32,903.25
2021,02,08,07,33,903.25
2021,02,08,07,34,903.25
2021,02,08,07,35,903.25
2021,02,08,07,36,903.30
2021,02,08,07,37,903.26
2021,02,08,07,38,902.95
2021,02,08,07,39,902.58
2021,02,08,07,40,901.59
2021,02,08,07,41,901.32
2021,02,08,07,42,901.32
2021,02,08,07,43,901.32
2021,02,08,07,45,901.32
2021,02,08,07,46,901.14
2021,02,08,07,47,900.84
2021,02,08,07,48,901.18
2021,02,08,07,49,901.78
2021,02,08,07,50,902.03
2021,02,08,07,51,901.93
2021,02,08,07,52,901.81
2021,02,08,07,53,901.56
2021,02,08,07,54,902.03
2021,02,08,07,55,902.78
2021,02,08,07,56,902.53
2021,02,08,07,57,902.63
2021,02,08,07,58,902.61
2021,02,08,07,59,901.85
2021,02,08,08,00,900.32
2021,02,08,08,01,900.26
2021,02,08,08,02,900.35
2021,02,08,08,03,900.54
2021,02,08,08,04,900.37
2021,02,08,08,05,900.10
2021,02,08,08,06,900.10
2021,02,08,08,07,901.07
2021,02,08,08,08,902.88
2021,02,08,08,09,903.38
2021,02,08,08,10,904.15
2021,02,08,08,11,904.00
2021,02,08,08,12,903.31
2021,02,08,08,13,903.09
2021,02,08,08,14,903.39
2021,02,08,08,15,903.39
2021,02,08,08,16,903.39
2021,02,08,08,17,903.39
2021,02,08,08,18,903.39
2021,02,08,08,19,903.77
2021,02,08,08,20,904.36
2021,02,08,08,21,904.50
2021,02,08,08,22,904.15
2021,02,08,08,23,903.88
2021,02,08,08,24,904.27
2021,02,08,08,25,904.27
2021,02,08,08,26,903.95
2021,02,08,08,27,903.49
2021,02,08,08,28,903.45
2021,02,08,08,29,904.22
2021,02,08,08,30,905.25
2021,02,08,08,31,904.72
2021,02,08,08,32,903.93
2021,02,08,08,33,903.93
2021,02,08,08,34,903.93
2021,02,08,08,35,903.93
2021,02,08,08,36,904.01
2021,02,08,08,37,903.84
2021,02,08,08,38,903.48
2021,02,08,08,39,903.52
2021,02,08,08,40,903.52
2021,02,08,08,41,903.83
2021,02,08,08,42,904.01
2021,02,08,08,43,903.82
2021,02,08,08,44,904.05
2021,02,08,08,45,904.20
2021,02,08,08,46,903.66
2021,02,08,08,47,903.12
2021,02,08,08,48,903.12
2021,02,08,08,49,902.84
2021,02,08,08,50,902.54
2021,02,08,08,51,902.54
2021,02,08,08,52,902.95
2021,02,08,08,53,903.43
2021,02,08,08,54,903.52
2021,02,08,08,55,903.52
2021,02,08,08,56,903.52
2021,02,08,08,57,904.36
2021,02,08,08,58,905.28
2021,02,08,08,59,905.28
2021,02,08,09,00,905.05
2021,02,08,09,01,904.78
2021,02,08,09,02,905.26
2021,02,08,09,03,905.54
2021,02,08,09,04,905.03
2021,02,08,09,05,904.90
2021,02,08,09,06,905.08
2021,02,08,09,07,905.08
2021,02,08,09,08,904.57
2021,02,08,09,09,904.13
2021,02,08,09,10,903.91
2021,02,08,09,11,903.57
2021,02,08,09,12,903.56
2021,02,08,09,13,903.20
2021,02,08,09,14,902.90
2021,02,08,09,15,902.83
2021,02,08,09,16,902.69
2021,02,08,09,17,902.61
2021,02,08,09,18,903.64
2021,02,08,09,19,904.44
2021,02,08,09,20,904.44
2021,02,08,09,21,904.44
2021,02,08,09,22,904.70
2021,02,08,09,23,904.64
2021,02,08,09,24,904.24
2021,02,08,09,25,904.13
2021,02,08,09,26,904.13
2021,02,08,09,27,903.88
2021,02,08,09,28,903.69
2021,02,08,09,29,903.69
2021,02,08,09,30,903.69
2021,02,08,09,31,903.69
2021,02,08,09,32,903.11
2021,02,08,09,33,902.68
2021,02,08,09,34,903.82
2021,02,08,09,35,904.61
2021,02,08,09,36,904.10
2021,02,08,09,37,903.79
2021,02,08,09,38,904.24
2021,02,08,09,39,904.85
2021,02,08,09,40,904.67
2021,02,08,09,41,904.40
2021,02,08,09,42,904.40
2021,02,08,09,43,903.82
2021,02,08,09,44,903.44
2021,02,08,09,45,903.45
2021,02,08,09,46,903.45
2021,02,08,09,47,903.45
2021,02,08,09,48,903.45
2021,02,08,09,49,905.53
2021,02,08,09,50,907.09
2021,02,08,09,51,907.32
2021,02,08,09,52,907.32
2021,02,08,09,53,907.32
2021,02,08,09,54,907.32
2021,02,08,09,55,907.32
2021,02,08,09,56,907.32
2021,02,08,09,57,907.32
2021,02,08,09,58,907.41
2021,02,08,09,59,907.48
2021,02,08,10,00,906.79
2021,02,08,10,01,906.00
2021,02,08,10,02,906.17
2021,02,08,10,03,906.30
2021,02,08,10,04,905.23
2021,02,08,10,05,904.57
2021,02,08,10,06,905.18
2021,02,08,10,07,905.82
2021,02,08,10,08,906.20
2021,02,08,10,09,905.97
2021,02,08,10,10,905.73
2021,02,08,10,11,905.28
2021,02,08,10,12,905.05
2021,02,08,10,13,905.05
2021,02,08,10,14,906.00
2021,02,08,10,15,906.47
2021,02,08,10,16,906.47
2021,02,08,10,17,906.54
2021,02,08,10,18,906.57
2021,02,08,10,19,907.56
2021,02,08,10,20,907.66
2021,02,08,10,21,907.63
2021,02,08,10,22,907.34
2021,02,08,10,23,907.16
2021,02,08,10,24,906.75
2021,02,08,10,25,906.57
2021,02,08,10,26,905.85
2021,02,08,10,27,905.49
2021,02,08,10,28,905.49
2021,02,08,10,29,907.77
2021,02,08,10,30,908.49
2021,02,08,10,31,908.79
2021,02,08,10,32,908.74
2021,02,08,10,33,908.77
2021,02,08,10,34,908.81
2021,02,08,10,35,908.81
2021,02,08,10,36,908.81
2021,02,08,10,37,908.81
2021,02,08,10,38,908.91
2021,02,08,10,39,908.94
2021,02,08,10,40,907.90
2021,02,08,10,41,907.55
2021,02,08,10,42,905.75
2021,02,08,10,43,905.47
2021,02,08,10,44,905.30
2021,02,08,10,45,905.15
2021,02,08,10,46,904.47
2021,02,08,10,47,904.03
2021,02,08,10,48,904.47
2021,02,08,10,49,904.94
2021,02,08,10,50,905.05
2021,02,08,10,51,906.18
2021,02,08,10,52,906.54
2021,02,08,10,53,904.96
2021,02,08,10,54,904.88
2021,02,08,10,55,904.60
2021,02,08,10,56,904.47
2021,02,08,10,57,904.47
2021,02,08,10,58,904.47
2021,02,08,10,59,906.02
2021,02,08,11,00,906.26
2021,02,08,11,01,906.03
2021,02,08,11,02,905.48
2021,02,08,11,03,905.32
2021,02,08,11,04,905.32
2021,02,08,11,05,905.32
2021,02,08,11,06,905.32
2021,02,08,11,07,905.32
2021,02,08,11,08,907.07
2021,02,08,11,09,907.40
2021,02,08,11,10,907.17
2021,02,08,11,11,907.44
2021,02,08,11,12,907.52
2021,02,08,11,13,908.54
2021,02,08,11,14,908.77
2021,02,08,11,15,908.77
2021,02,08,11,16,908.77
2021,02,08,11,17,908.77
2021,02,08,11,18,908.77
2021,02,08,11,19,908.77
2021,02,08,11,20,907.13
2021,02,08,11,21,907.20
2021,02,08,11,22,907.14
2021,02,08,11,23,907.47
2021,02,08,11,24,907.55
2021,02,08,11,25,909.21
2021,02,08,11,26,909.84
2021,02,08,11,27,909.89
2021,02,08,11,28,911.01
2021,02,08,11,29,911.21
2021,02,08,11,30,909.83
2021,02,08,11,31,908.96
2021,02,08,11,32,908.87
2021,02,08,11,33,906.79
2021,02,08,11,34,906.92
2021,02,08,11,35,906.98
2021,02,08,11,36,906.98
2021,02,08,11,37,906.98
2021,02,08,11,38,906.98
2021,02,08,11,39,906.98
2021,02,08,11,40,907.53
2021,02,08,11,41,907.31
2021,02,08,11,42,906.79
2021,02,08,11,43,906.74
2021,02,08,11,44,906.74
2021,02,08,11,45,906.74
2021,02,08,11,46,906.16
2021,02,08,11,47,905.76
2021,02,08,11,48,905.72
2021,02,08,11,49,905.72
2021,02,08,11,50,905.72
2021,02,08,11,51,905.72
2021,02,08,11,52,902.35
2021,02,08,11,53,902.00
2021,02,08,11,54,902.73
2021,02,08,11,55,902.81
2021,02,08,11,56,903.76
2021,02,08,11,57,903.86
2021,02,08,11,58,903.86
2021,02,08,11,59,903.86
2021,02,08,12,00,905.78
2021,02,08,12,01,906.10
2021,02,08,12,02,907.45
2021,02,08,12,03,907.74
2021,02,08,12,04,907.14
2021,02,08,12,05,907.66
2021,02,08,12,06,907.65
2021,02,08,12,07,907.65
2021,02,08,12,08,906.88
2021,02,08,12,09,906.26
2021,02,08,12,10,906.23
2021,02,08,12,11,901.68
2021,02,08,12,12,901.46
2021,02,08,12,13,901.46
2021,02,08,12,14,905.07
2021,02,08,12,15,904.76
2021,02,08,12,16,905.03
2021,02,08,12,17,904.78
2021,02,08,12,18,905.36
2021,02,08,12,19,905.39
2021,02,08,12,20,905.39
2021,02,08,12,21,901.56
2021,02,08,12,22,901.36
2021,02,08,12,23,904.30
2021,02,08,12,24,903.93
2021,02,08,12,25,904.00
2021,02,08,12,26,904.00
2021,02,08,12,27,905.86
2021,02,08,12,28,905.96
2021,02,08,12,29,904.27
2021,02,08,12,30,904.91
2021,02,08,12,31,904.91
2021,02,08,12,32,904.91
2021,02,08,12,33,904.91
2021,02,08,12,34,904.91
2021,02,08,12,35,904.91
2021,02,08,12,36,905.68
2021,02,08,12,37,905.72
2021,02,08,12,38,905.72
2021,02,08,12,39,905.72
2021,02,08,12,40,905.72
2021,02,08,12,41,905.72
2021,02,08,12,42,905.72
2021,02,08,12,43,907.21
2021,02,08,12,44,907.25
2021,02,08,12,45,908.09
2021,02,08,12,46,907.76
2021,02,08,12,47,907.99
2021,02,08,12,48,907.99
2021,02,08,12,49,907.99
2021,02,08,12,50,907.96
2021,02,08,12,51,907.32
2021,02,08,12,52,907.40
2021,02,08,12,53,909.05
2021,02,08,12,54,909.25
2021,02,08,12,55,909.25
2021,02,08,12,56,909.25
2021,02,08,12,57,909.25
2021,02,08,12,58,909.25
2021,02,08,12,59,909.25
2021,02,08,13,00,909.20
2021,02,08,13,01,908.67
2021,02,08,13,02,908.67
2021,02,08,13,03,908.69
2021,02,08,13,04,909.11
2021,02,08,13,05,909.72
2021,02,08,13,06,909.72
2021,02,08,13,07,909.72
2021,02,08,13,08,909.72
2021,02,08,13,09,909.53
2021,02,08,13,10,908.41
2021,02,08,13,11,908.53
2021,02,08,13,12,908.68
2021,02,08,13,13,910.00
2021,02,08,13,14,909.34
2021,02,08,13,15,908.77
2021,02,08,13,16,908.74
2021,02,08,13,17,908.43
2021,02,08,13,18,908.43
2021,02,08,13,19,908.43
2021,02,08,13,20,908.42
2021,02,08,13,21,908.33
2021,02,08,13,22,908.21
2021,02,08,13,23,907.48
2021,02,08,13,24,907.65
2021,02,08,13,25,908.61
2021,02,08,13,26,908.46
2021,02,08,13,27,908.84
2021,02,08,13,28,908.84
2021,02,08,13,29,908.66
2021,02,08,13,30,907.52
2021,02,08,13,31,907.64
2021,02,08,13,32,908.34
2021,02,08,13,33,908.23
2021,02,08,13,34,908.64
2021,02,08,13,35,908.99
2021,02,08,13,36,909.42
2021,02,08,13,37,909.42
2021,02,08,13,38,909.42
2021,02,08,13,39,909.45
2021,02,08,13,40,909.55
2021,02,08,13,41,909.21
2021,02,08,13,42,907.65
2021,02,08,13,43,907.65
2021,02,08,13,44,907.64
2021,02,08,13,45,907.59
2021,02,08,13,46,907.59
2021,02,08,13,47,907.59
2021,02,08,13,48,908.29
2021,02,08,13,49,911.19
2021,02,08,13,50,910.71
2021,02,08,13,51,910.57
2021,02,08,13,52,910.32
2021,02,08,13,53,909.24
2021,02,08,13,54,909.08
2021,02,08,13,55,908.99
2021,02,08,13,56,908.64
2021,02,08,13,57,908.53
2021,02,08,13,58,909.04
2021,02,08,13,59,909.04
2021,02,08,14,00,909.18
2021,02,08,14,01,909.67
2021,02,08,14,02,909.82
2021,02,08,14,03,910.24
2021,02,08,14,04,911.58
2021,02,08,14,05,911.58
2021,02,08,14,06,911.58
2021,02,08,14,07,910.65
2021,02,08,14,08,906.94
2021,02,08,14,09,906.94
2021,02,08,14,10,906.94
2021,02,08,14,11,907.19
2021,02,08,14,12,908.03
2021,02,08,14,13,908.03
2021,02,08,14,14,908.03
2021,02,08,14,15,908.03
2021,02,08,14,16,908.03
2021,02,08,14,17,908.03
2021,02,08,14,18,908.03
2021,02,08,14,19,908.03
2021,02,08,14,20,908.03
2021,02,08,14,46,901.83
2021,02,08,14,47,901.83
2021,02,08,14,48,901.83
2021,02,08,14,51,901.56
2021,02,08,14,52,901.54
2021,02,08,14,53,901.67
2021,02,08,14,54,902.08
2021,02,08,14,55,902.01
2021,02,08,14,56,901.59
2021,02,08,14,57,902.20
2021,02,08,14,58,903.18
2021,02,08,14,59,903.66
2021,02,08,15,00,904.42
2021,02,08,15,01,904.68
2021,02,08,15,02,904.87
2021,02,08,15,03,904.59
2021,02,08,15,04,904.78
2021,02,08,15,05,905.08
2021,02,08,15,06,905.08
2021,02,08,15,07,905.08
2021,02,08,15,08,905.08
2021,02,08,15,09,905.00
2021,02,08,15,10,904.92
2021,02,08,15,11,904.84
2021,02,08,15,12,904.61
2021,02,08,15,13,905.06
2021,02,08,15,14,905.48
2021,02,08,15,15,904.89
2021,02,08,15,16,904.44
2021,02,08,15,17,904.23
2021,02,08,15,18,904.23
2021,02,08,15,19,904.89
2021,02,08,15,20,905.89
2021,02,08,15,21,905.18
2021,02,08,15,22,904.03
2021,02,08,15,23,904.45
2021,02,08,15,24,905.01
2021,02,08,15,25,905.01
2021,02,08,15,26,904.66
2021,02,08,15,27,904.35
2021,02,08,15,28,904.24
2021,02,08,15,29,904.06
2021,02,08,15,30,904.37
2021,02,08,15,31,905.06
2021,02,08,15,32,905.89
2021,02,08,15,33,905.31
2021,02,08,15,34,904.67
2021,02,08,15,35,905.01
2021,02,08,15,36,905.37
2021,02,08,15,37,905.28
2021,02,08,15,38,905.15
2021,02,08,15,39,905.05
2021,02,08,15,40,905.15
2021,02,08,15,41,905.41
2021,02,08,15,42,905.63
2021,02,08,15,43,905.39
2021,02,08,15,44,905.32
2021,02,08,15,45,905.32
2021,02,08,15,46,905.32
2021,02,08,15,47,905.25
2021,02,08,15,48,905.03
2021,02,08,15,49,904.88
2021,02,08,15,50,904.88
2021,02,08,15,51,907.21
2021,02,08,15,52,907.21
2021,02,08,15,53,906.13
2021,02,08,15,54,906.13
2021,02,08,15,55,906.15
2021,02,08,15,56,906.60
2021,02,08,15,57,906.15
2021,02,08,15,58,905.96
2021,02,08,15,59,905.45
2021,02,08,16,00,905.49
2021,02,08,16,01,905.56
2021,02,08,16,02,907.01
2021,02,08,16,03,907.59
2021,02,08,16,04,907.65
2021,02,08,16,05,907.55
2021,02,08,16,06,907.42
2021,02,08,16,07,906.82
2021,02,08,16,08,907.01
2021,02,08,16,09,906.91
2021,02,08,16,10,905.98
2021,02,08,16,11,906.17
2021,02,08,16,12,905.83
2021,02,08,16,13,905.54
2021,02,08,16,14,905.76
2021,02,08,16,15,905.73
2021,02,08,16,16,905.23
2021,02,08,16,17,905.76
2021,02,08,16,18,905.83
2021,02,08,16,19,906.47
2021,02,08,16,20,906.47
2021,02,08,16,21,906.44
2021,02,08,16,22,906.16
2021,02,08,16,23,906.11
2021,02,08,16,24,905.55
2021,02,08,16,25,905.16
2021,02,08,16,26,905.27
2021,02,08,16,27,905.70
2021,02,08,16,28,905.79
2021,02,08,16,29,906.07
2021,02,08,16,30,906.34
2021,02,08,16,31,906.02
2021,02,08,16,32,905.97
2021,02,08,16,33,906.10
2021,02,08,16,34,906.41
2021,02,08,16,35,906.92
2021,02,08,16,36,907.32
2021,02,08,16,37,907.22
2021,02,08,16,38,906.66
2021,02,08,16,39,906.77
2021,02,08,16,40,906.77
2021,02,08,16,41,906.82
2021,02,08,16,42,907.17
2021,02,08,16,43,907.40
2021,02,08,16,44,907.87
2021,02,08,16,45,907.85
2021,02,08,16,46,907.46
2021,02,08,16,47,907.82
2021,02,08,16,48,907.82
2021,02,08,16,49,907.84
2021,02,08,16,50,907.96
2021,02,08,16,51,907.96
2021,02,08,16,52,907.95
2021,02,08,16,53,907.91
2021,02,08,16,54,908.17
2021,02,08,16,55,908.23
2021,02,08,16,56,908.23
2021,02,08,16,57,908.21
2021,02,08,16,58,908.11
2021,02,08,16,59,908.07
2021,02,08,17,00,908.13
2021,02,08,17,01,908.40
2021,02,08,17,02,908.70
2021,02,08,17,03,908.61
2021,02,08,17,04,908.20
2021,02,08,17,05,908.20
2021,02,08,17,06,908.28
2021,02,08,17,07,908.62
2021,02,08,17,08,908.79
2021,02,08,17,09,908.34
2021,02,08,17,10,908.16
2021,02,08,17,11,908.11
2021,02,08,17,12,907.95
2021,02,08,17,13,908.22
2021,02,08,17,14,908.30
2021,02,08,17,15,908.30
2021,02,08,17,16,908.30
2021,02,08,17,17,908.30
2021,02,08,17,18,908.43
2021,02,08,17,19,908.84
2021,02,08,17,20,908.84
2021,02,08,17,21,909.19
2021,02,08,17,22,910.28
2021,02,08,17,23,910.62
2021,02,08,17,24,910.16
2021,02,08,17,25,909.99
2021,02,08,17,26,909.45
2021,02,08,17,27,909.93
2021,02,08,17,28,911.14
2021,02,08,17,29,910.99
2021,02,08,17,30,910.47
2021,02,08,17,31,910.13
2021,02,08,17,32,909.69
2021,02,08,17,33,909.84
2021,02,08,17,34,910.23
2021,02,08,17,35,910.23
2021,02,08,17,36,910.32
2021,02,08,17,37,910.53
2021,02,08,17,38,910.53
2021,02,08,17,39,910.52
2021,02,08,17,40,910.50
2021,02,08,17,41,910.68
2021,02,08,17,42,911.06
2021,02,08,17,43,910.94
2021,02,08,17,44,910.46
2021,02,08,17,45,910.29
2021,02,08,17,46,910.67
2021,02,08,17,47,910.67
2021,02,08,17,48,910.64
2021,02,08,17,49,910.57
2021,02,08,17,50,910.72
2021,02,08,17,51,911.04
2021,02,08,17,52,911.15
2021,02,08,17,53,911.41
2021,02,08,17,54,911.77
2021,02,08,17,55,912.60
2021,02,08,17,56,912.34
2021,02,08,17,57,911.97
2021,02,08,17,58,912.36
2021,02,08,17,59,912.70
2021,02,08,18,00,913.65
2021,02,08,18,01,914.11
2021,02,08,18,02,914.11
2021,02,08,18,03,913.84
2021,02,08,18,04,913.55
2021,02,08,18,05,913.61
2021,02,08,18,06,913.72
2021,02,08,18,07,913.31
2021,02,08,18,08,912.58
2021,02,08,18,09,912.49
2021,02,08,18,10,911.93
2021,02,08,18,11,911.52
2021,02,08,18,12,911.44
2021,02,08,18,13,911.33
2021,02,08,18,14,911.08
2021,02,08,18,15,911.01
2021,02,08,18,16,911.66
2021,02,08,18,17,912.19
2021,02,08,18,18,912.45
2021,02,08,18,19,912.16
2021,02,08,18,20,912.16
2021,02,08,18,21,912.16
2021,02,08,18,22,911.87
2021,02,08,18,23,911.41
2021,02,08,18,24,911.41
2021,02,08,18,25,911.32
2021,02,08,18,26,911.11
2021,02,08,18,27,911.18
2021,02,08,18,28,911.35
2021,02,08,18,29,911.35
2021,02,08,18,30,911.30
2021,02,08,18,31,911.06
2021,02,08,18,32,910.67
2021,02,08,18,33,910.50
2021,02,08,18,34,911.01
2021,02,08,18,35,911.58
2021,02,08,18,36,911.45
2021,02,08,18,37,911.45
2021,02,08,18,38,911.45
2021,02,08,18,39,910.91
2021,02,08,18,40,910.32
2021,02,08,18,41,910.50
2021,02,08,18,42,910.50
2021,02,08,18,43,910.50
2021,02,08,18,44,911.64
2021,02,08,18,45,913.23
2021,02,08,18,46,913.65
2021,02,08,18,47,913.74
2021,02,08,18,48,913.90
2021,02,08,18,49,914.11
2021,02,08,18,50,914.17
2021,02,08,18,51,914.39
2021,02,08,18,52,914.39
2021,02,08,18,53,914.39
2021,02,08,18,54,914.39
2021,02,08,18,55,913.80
2021,02,08,18,56,913.04
2021,02,08,18,57,911.70
2021,02,08,18,58,910.23
2021,02,08,18,59,910.23
2021,02,08,19,00,910.23
2021,02,08,19,01,910.23
2021,02,08,19,02,910.23
2021,02,08,19,03,910.23
2021,02,08,19,04,910.23
2021,02,08,19,05,906.47
2021,02,08,19,06,902.71
2021,02,08,19,07,903.21
2021,02,08,19,08,903.92
2021,02,08,19,09,904.06
2021,02,08,19,10,904.51
2021,02,08,19,11,905.25
2021,02,08,19,12,905.59
2021,02,08,19,13,905.08
2021,02,08,19,14,904.61
2021,02,08,19,15,903.83
2021,02,08,19,16,902.98
2021,02,08,19,17,902.98
2021,02,08,19,18,902.98
2021,02,08,19,19,905.05
2021,02,08,19,20,907.05
2021,02,08,19,21,907.40
2021,02,08,19,22,907.67
2021,02,08,19,23,908.08
2021,02,08,19,24,908.68
2021,02,08,19,25,908.71
2021,02,08,19,26,908.61
2021,02,08,19,27,908.60
2021,02,08,19,28,908.72
2021,02,08,19,29,908.78
2021,02,08,19,30,908.88
2021,02,08,19,31,909.03
2021,02,08,19,32,908.97
2021,02,08,19,33,909.36
2021,02,08,19,34,909.94
2021,02,08,19,35,910.29
2021,02,08,19,36,910.33
2021,02,08,19,37,910.80
2021,02,08,19,38,911.18
2021,02,08,19,39,910.47
2021,02,08,19,40,910.18
2021,02,08,19,41,910.24
2021,02,08,19,42,910.21
2021,02,08,19,43,910.33
2021,02,08,19,44,910.80
2021,02,08,19,45,911.07
2021,02,08,19,46,911.07
2021,02,08,19,47,911.07
2021,02,08,19,48,910.16
2021,02,08,19,49,909.42
2021,02,08,19,50,908.81
2021,02,08,19,51,908.43
2021,02,08,19,52,908.43
2021,02,08,19,53,907.34
2021,02,08,19,54,906.67
2021,02,08,19,55,906.67
2021,02,08,19,56,906.67
2021,02,08,19,57,906.67
2021,02,08,19,58,905.96
2021,02,08,19,59,905.89
2021,02,08,20,00,906.16
2021,02,08,20,01,906.73
2021,02,08,20,02,906.62
2021,02,08,20,03,906.23
2021,02,08,20,04,905.95
2021,02,08,20,05,905.59
2021,02,08,20,06,905.42
2021,02,08,20,07,905.20
2021,02,08,20,08,905.08
2021,02,08,20,09,905.37
2021,02,08,20,10,905.55
2021,02,08,20,11,906.63
2021,02,08,20,12,907.03
2021,02,08,20,13,906.82
2021,02,08,20,14,906.75
2021,02,08,20,15,906.34
2021,02,08,20,16,905.92
2021,02,08,20,17,905.83
2021,02,08,20,18,907.72
2021,02,08,20,19,908.53
2021,02,08,20,20,909.36
2021,02,08,20,21,909.48
2021,02,08,20,22,909.35
2021,02,08,20,23,909.53
2021,02,08,20,24,909.69
2021,02,08,20,25,909.90
2021,02,08,20,26,909.99
2021,02,08,20,27,910.57
2021,02,08,20,28,910.80
2021,02,08,20,29,911.71
2021,02,08,20,30,912.45
2021,02,08,20,31,912.21
2021,02,08,20,32,911.56
2021,02,08,20,33,911.41
2021,02,08,20,34,911.41
2021,02,08,20,35,912.33
2021,02,08,20,36,912.72
2021,02,08,20,37,912.38
2021,02,08,20,38,911.87
2021,02,08,20,39,911.75
2021,02,08,20,40,912.39
2021,02,08,20,41,912.67
2021,02,08,20,42,911.59
2021,02,08,20,43,910.67
2021,02,08,20,44,910.50
2021,02,08,20,45,909.61
2021,02,08,20,46,909.64
2021,02,08,20,47,909.53
2021,02,08,20,48,909.39
2021,02,08,20,49,909.38
2021,02,08,20,50,910.47
2021,02,08,20,51,910.84
2021,02,08,20,52,910.80
2021,02,08,20,53,910.80
2021,02,08,20,54,910.80
2021,02,08,20,55,909.47
2021,02,08,20,56,908.97
2021,02,08,20,57,907.84
2021,02,08,20,58,907.56
2021,02,08,20,59,907.59
2021,02,08,21,00,906.94
2021,02,08,21,01,906.41
2021,02,08,21,02,906.30
2021,02,08,21,03,906.30
2021,02,08,21,04,906.30
2021,02,08,21,05,906.30
2021,02,08,21,06,908.18
2021,02,08,21,07,908.63
2021,02,08,21,08,908.95
2021,02,08,21,09,909.04
2021,02,08,21,10,909.04
2021,02,08,21,11,909.07
2021,02,08,21,12,909.50
2021,02,08,21,13,909.92
2021,02,08,21,14,910.15
2021,02,08,21,15,910.19
2021,02,08,21,16,910.19
2021,02,08,21,17,910.56
2021,02,08,21,18,910.42
2021,02,08,21,19,910.53
2021,02,08,21,20,910.97
2021,02,08,21,21,910.96
2021,02,08,21,22,910.42
2021,02,08,21,23,910.30
2021,02,08,21,24,911.57
2021,02,08,21,25,911.72
2021,02,08,21,26,911.49
2021,02,08,21,27,911.45
2021,02,08,21,28,911.45
2021,02,08,21,29,910.37
2021,02,08,21,30,909.73
2021,02,08,21,31,909.62
2021,02,08,21,32,908.40
2021,02,08,21,33,908.34
2021,02,08,21,34,908.37
2021,02,08,21,35,908.37
2021,02,08,21,36,908.56
2021,02,08,21,37,908.27
2021,02,08,21,38,908.03
2021,02,08,21,39,908.22
2021,02,08,21,40,908.67
2021,02,08,21,41,908.33
2021,02,08,21,42,908.61
2021,02,08,21,43,909.17
2021,02,08,21,44,908.69
2021,02,08,21,45,908.18
2021,02,08,21,46,908.54
2021,02,08,21,47,908.60
2021,02,08,21,48,909.63
2021,02,08,21,49,909.64
2021,02,08,21,50,909.62
2021,02,08,21,51,910.25
2021,02,08,21,52,910.36
2021,02,08,21,53,910.42
2021,02,08,21,54,910.46
2021,02,08,21,55,910.46
2021,02,08,21,56,910.46
2021,02,08,21,57,910.90
2021,02,08,21,58,910.50
2021,02,08,21,59,910.43
2021,02,08,22,00,910.43
2021,02,08,22,01,910.43
2021,02,08,22,02,914.01
2021,02,08,22,03,913.84
2021,02,08,22,04,913.69
2021,02,08,22,05,913.68
2021,02,08,22,06,912.27
2021,02,08,22,07,912.12
2021,02,08,22,08,911.51
2021,02,08,22,09,911.66
2021,02,08,22,10,911.68
2021,02,08,22,11,914.58
2021,02,08,22,12,914.44